Regional Weather Roundup
Issued by NWS Charleston, SC

Current Version | Previous Version | Text Only | Print | Product List | Glossary Off
Versions: 1 2 3 4 5 6 7 8 9 10 11 12 13 14 15 16 17 18 19 20 21 22 23 24 25 26 27 28 29 30 31 32 33 34 35 36 37 38 39 40 41 42 43 44 45 46 47 48 49 50
000 ASUS42 KCHS 041527 RWRCHS REGIONAL WEATHER ROUNDUP NATIONAL WEATHER SERVICE CHARLESTON SC 1100 AM EDT SAT JUL 04 2015 NOTE: "FAIR" INDICATES FEW OR NO CLOUDS BELOW 12,000 FEET WITH NO SIGNIFICANT WEATHER AND/OR OBSTRUCTIONS TO VISIBILITY. NOT ALL STATIONS ARE QUALITY CONTROLLED BY THE NATIONAL WEATHER SERVICE. USE DATA WITH CAUTION...ESPECIALLY DEWPOINT OBSERVATIONS. SCZ027-030-031-034>040-042>050-041600- ...SOUTHEAST SOUTH CAROLINA... CITY SKY/WX TMP DP RH WIND PRES REMARKS N CHARLESTON MOSUNNY 85 69 58 W9 30.08R WATERFRONT PAR N/A 83 71 66 VRB3 30.06R MOUNT PLEASANT LGT RAIN 84 70 61 SW6 30.08S JOHNS ISLAND N/A 86 72 62 W8 30.09R HX 92 PINOPOLIS NOT AVBL MONCKS CORNER FAIR 86 70 58 SW8 30.08R HX 90 SUMMERVILLE FAIR 84 72 65 S8 30.10R BEAUFORT MCAS MOSUNNY 85 70 60 VRB6 30.09S BEAUFORT ARPT FAIR 84 72 65 SW7 30.09S HILTON HEAD IS PTSUNNY 84 73 70 S3 30.11R HX 91 WALTERBORO MOSUNNY 84 68 58 SW9 30.10R ALLENDALE FAIR 82 70 65 VRB5 30.09R ...SOUTHERN MIDLANDS AND PEE DEE... CITY SKY/WX TMP DP RH WIND PRES REMARKS GEORGETOWN NOT AVBL KINGSTREE NOT AVBL ORANGEBURG CLOUDY 78 68 71 W6 30.08R BARNWELL FAIR 82 72 69 W9 30.10R AIKEN NOT AVBL MANNING FAIR 82 64 54 SW9 30.07R COLUMBIA CLOUDY 79 67 66 SW8 30.06R SUMTER PTSUNNY 78 68 72 SW13 30.05R FLORENCE PTSUNNY 81 69 67 W10 30.04R MYRTLE BEACH SUNNY 88 70 55 W12 30.07R HX 92 N MYRTLE BEACH MOSUNNY 85 68 56 W13 30.05R $$ GAZ063-065-086>088-099>101-113>116-118-119-134>141-150-041600- ...SOUTHEAST GEORGIA... CITY SKY/WX TMP DP RH WIND PRES REMARKS SAVANNAH ARPT PTSUNNY 85 72 65 S5 30.10S HX 91 HUNTER AAF MOSUNNY 85 75 73 SW6 30.08R HX 93 FORT STEWART PTSUNNY 85 73 68 SW8 30.09S HX 92 STATESBORO NOT AVBL SYLVANIA PTSUNNY 83 73 69 W3 30.12R CLAXTON FAIR 82 72 69 CALM 30.12R ...CSRA...CENTRAL AND FAR SOUTHEAST GEORGIA... CITY SKY/WX TMP DP RH WIND PRES REMARKS THOMSON CLOUDY 79 72 78 SW6 30.13F AUGUSTA-BUSH PTSUNNY 81 66 60 W10 30.09R AUGUSTA-DANIEL PTSUNNY 79 66 64 VRB6 30.10R SWAINSBORO FAIR 84 72 65 W6 30.13R VIDALIA PTSUNNY 84 70 61 SW10 30.12S EASTMAN PTSUNNY 85 73 68 SW7 30.14S HX 92 HAZLEHURST PTSUNNY 86 75 69 SW3 30.11S HX 94 ALMA PTSUNNY 81 74 79 W8 30.12S WAYCROSS CLOUDY 86 79 78 W7 30.13R HX 99 JESUP PTSUNNY 86 77 74 W5 30.12R HX 97 BAXLEY PTSUNNY 86 75 70 W5 30.12S HX 95 BRUNSWICK MOSUNNY 88 73 62 W8 30.13R HX 96 SAINT SIMONS SUNNY 86 72 62 W9 30.11S HX 92 $$ SCZ027-028-034-036>038-045-046-048>050-GAZ119-141-041600- ...LAKE AND SUPPLEMENTAL COASTAL OBSERVATIONS... STATION/POSITION TIME TEMP WIND PRES WAVE SWELL AIR SEA DIR/SP/G HT/PER HT/PER/DIR (UTC) (F) (DEG/KT/KT) (MB) (FT/S) (FT/S/D) UPR LAKE MARION NOT AVBL WINYAH BAY 1400 80 240/ 7 1017.0S LAKE MURRAY 1400 75 260/ 11/ 14 1016.9R ACE BASIN NERRS 1400 83 140/ 1 1019.0R FORT PULASKI 1500 82 83 180/ 3/ 5 1019.8R SAPELO ISLAND 1500 86 220/ 5 1019.0S $$ ANZ835-935-AMZ111-154-330-350-352-354-370-450-454-472-041600- ...C-MAN AND BUOY OBSERVATIONS... STATION/POSITION TIME TEMP WIND PRES WAVE SWELL AIR SEA DIR/SP/G HT/PER HT/PER/DIR (UTC) (F) (DEG/KT/KT) (MB) (FT/S) (FT/S/D) BUOY 41004 1450 81 81 240/ 12/ 14 1018.1R 5/ 6 3/ 6 BUOY 41008 1450 78 78 230/ 8/ 10 1019.6R 3/ 8 2/110/ 8 FOLLY BEACH CMAN 1500 81 210/ 10/ 11 1018.8R CAPERS NEARSHORE 1408 80 230/ 8/ 10 1018.6R FRIPP NEARSHORE 1400 83 200/ 4/ 6 1018.5F STATION/POSITION TIME TEMP WIND PRES WAVE SWELL AIR SEA DIR/SP/G HT/PER HT/PER/DIR (UTC) (F) (DEG/KT/KT) (MB) (FT/S) (FT/S/D) 5E ST. MARYS GA 1421 78 N/A 2/ 9 FRYING PAN BUOY 1450 80 78 230/ 12/ 14 1018.3R 5/ 6 3/190/ 6 BUOY 41025 1450 81 82 240/ 19/ 23 1015.3R 6/ 7 5/210/ 7 CAPE LOOKOUT NC 1500 82 250/ 18/ 24 1015.8R BUOY 41002 1450 82 80 230/ 12/ 16 1021.1S 6/ 7 5/270/ 7 BUOY 41010 1420 83 84 170/ 8/ 8 1021.4R ST AUGUSTINE FL 1500 75 72 130/ 8/ 9 1021.4R $$

USA.gov is the U.S. government's official web portal to all federal, state and local government web resources and services.